Temperature
18 18 19 19 19 19 19 19 19 19 19 19 19 19 19 19 19 19 19 19 19 19 19 19 19 19 18 18 18 18 18 18 18 18 18 18 18 18 18 18 18 18 17
19 19 19 19 19 19 19 19 19 19 19 19 19 19 19 19 19 19 19 19 19 19 19 19 19 19 19 18 18 18 18 18 18 18 18 18 18 18 18 18 18 17 17
19 19 19 19 19 19 19 19 19 19 19 19 19 19 19 19 19 19 19 19 19 19 19 19 19 19 18 18 18 18 18 18 18 18 18 17 17 17 17 17 17 17 17
19 19 19 19 19 19 19 19 19 19 19 19 19 19 19 19 19 19 19 19 19 19 19 19 19 19 18 18 18 18 18 18 18 18 17 17 17 17 17 17 17 17 17
19 19 19 19 19 19 19 19 19 19 19 19 19 19 19 19 19 19 19 19 19 19 19 19 19 18 18 18 18 18 18 17 17 17 17 18 18 18 18 18 17 17 17
19 19 19 19 19 19 19 19 19 19 19 19 19 19 19 19 19 19 19 19 19 19 19 18 18 18 18 18 18 18 17 17 17 17 17 18 18 18 18 18 17 17 17
19 19 19 19 19 19 19 19 19 19 19 19 19 19 19 19 19 19 19 19 19 19 18 18 18 18 18 18 18 18 17 17 17 17 17 18 18 18 18 18 18 17 17
19 19 19 19 19 19 19 19 19 19 19 19 19 19 19 19 19 19 19 19 19 19 18 18 18 18 18 18 18 18 18 17 18 18 18 18 18 18 18 18 18 17 17
19 19 19 19 19 19 19 19 19 19 19 19 19 19 19 19 19 19 19 19 19 19 18 18 18 18 18 18 18 18 18 18 18 18 18 18 18 18 18 18 18 18 17
19 19 19 19 19 19 19 19 19 19 19 19 19 19 18 19 19 19 19 18 18 18 18 18 18 18 18 18 18 18 18 18 18 18 18 18 18 18 18 18 18 18 18
19 19 19 19 19 19 19 19 19 19 19 19 19 18 18 18 19 19 18 18 18 18 18 18 18 18 18 18 18 18 18 18 18 18 18 18 18 18 18 18 18 18 18
19 19 19 19 19 19 19 19 19 19 19 19 19 18 18 18 19 18 18 18 18 18 18 18 18 18 18 18 18 18 18 18 18 18 18 18 18 18 18 18 18 18 18
19 19 19 19 19 19 19 19 19 19 18 18 18 18 18 18 18 18 18 18 18 18 18 18 18 18 18 18 18 18 18 18 18 18 18 18 18 18 18 18 18 18 18
19 19 19 19 19 19 19 19 19 19 19 19 18 18 18 18 18 18 18 18 18 18 18 18 18 18 18 18 18 18 18 18 18 18 18 18 18 18 18 18 18 18 18
19 19 19 19 19 19 19 19 19 19 19 19 19 19 18 18 18 18 18 18 18 18 18 18 18 18 18 18 18 18 18 18 18 18 18 18 18 18 18 18 18 18 18
20 20 19 19 19 19 19 19 19 19 19 19 19 19 19 19 19 19 18 18 18 18 18 18 18 18 18 18 18 18 18 18 18 18 18 18 18 18 18 18 18 18 18
20 20 20 19 19 19 19 19 19 19 19 19 19 19 19 19 19 19 19 19 18 18 18 18 18 18 18 18 18 18 18 18 18 18 18 18 18 18 18 18 18 18 18
20 20 20 19 19 19 19 19 19 19 19 19 19 19 19 19 19 19 19 19 18 18 18 18 18 18 18 18 18 18 18 18 18 18 18 18 18 18 18 18 18 18 18
21 20 20 20 20 19 19 19 19 19 19 19 19 19 19 19 19 19 19 19 18 18 18 18 18 18 18 18 18 18 18 18 19 18 19 19 18 18 18 18 18 18 18
21 20 20 20 20 19 19 19 19 19 19 19 19 19 19 19 19 19 19 19 19 19 18 18 18 18 18 18 18 19 19 19 19 19 19 19 19 18 18 18 18 18 18
21 20 20 20 20 19 19 19 19 19 19 19 19 19 19 19 19 19 19 19 19 19 19 19 18 18 18 18 18 19 19 19 19 19 19 19 19 18 18 18 18 18 18
21 21 20 20 20 20 19 19 19 19 19 19 19 19 19 19 19 19 19 19 19 19 19 18 18 18 18 18 18 18 18 19 19 19 19 19 19 18 18 18 18 18 18
21 21 21 20 20 20 20 19 19 19 19 19 19 19 19 19 19 19 19 19 19 19 19 19 19 18 18 18 18 18 18 18 18 18 18 18 18 18 18 18 18 18 18
21 21 21 21 20 20 20 19 19 19 19 19 19 19 19 19 19 19 19 19 19 19 19 19 19 18 18 18 18 18 18 18 18 18 18 18 18 18 18 18 18 18 18
22 21 21 21 20 20 20 20 19 19 19 19 19 19 19 19 19 19 19 19 19 19 19 19 19 18 18 18 18 18 18 18 18 18 18 18 18 18 18 18 18 18 18
22 21 21 21 20 20 20 20 20 19 19 19 19 19 19 19 19 19 19 19 19 19 19 19 18 18 18 18 18 18 18 18 18 18 18 18 18 18 18 18 18 18 18
Wind_Speed
4 8 16 18 19 19 20 21 22 23 23 24 24 24 23 22 22 20 19 18 17 16 15 15 15 15 15 14 14 14 15 15 15 15 15 15 15 15 15 15 15 14 16
7 12 17 19 19 19 20 21 22 22 22 23 23 22 22 21 20 19 18 17 16 16 15 14 14 13 13 13 13 13 13 13 14 14 14 14 14 14 14 14 13 13 15
10 14 18 19 19 20 20 21 21 21 21 21 21 21 20 20 19 18 17 16 15 14 14 13 12 12 12 12 12 12 12 12 12 13 12 11 12 13 13 13 14 14 14
13 14 17 20 20 20 20 21 21 21 20 20 20 19 19 18 18 17 16 15 14 13 12 12 11 11 11 11 10 10 10 10 11 11 9 9 10 12 13 13 14 14 13
12 15 18 21 20 20 20 20 20 20 20 19 19 18 18 17 16 15 15 14 13 12 11 10 10 9 9 9 8 8 7 7 7 7 7 8 10 12 13 13 13 13 13
11 15 19 20 20 19 19 19 19 19 19 18 17 17 17 16 15 14 13 12 12 11 10 9 8 7 7 6 6 5 4 4 5 6 7 9 10 12 13 12 12 12 12
11 13 18 20 19 18 19 19 19 18 18 17 16 16 15 15 14 13 12 11 11 10 9 8 7 6 5 5 4 3 2 2 3 5 7 9 10 12 12 12 12 12 11
12 12 16 19 19 19 19 19 18 18 18 17 16 15 14 14 12 12 11 11 10 9 8 7 6 5 4 3 2 2 2 1 3 4 7 9 11 12 12 13 12 11 11
12 11 11 15 17 18 18 18 17 17 17 16 15 14 14 13 11 11 10 9 9 8 7 6 5 4 3 2 1 1 2 3 4 5 7 8 11 13 13 12 12 11 11
10 8 8 10 12 13 15 17 16 16 15 15 14 13 13 12 11 10 9 9 8 8 7 6 4 3 2 2 2 1 1 2 5 6 7 9 11 13 13 12 12 11 11
10 7 7 7 9 11 12 14 15 15 14 14 13 12 11 9 9 8 8 8 8 7 7 6 5 4 3 3 3 2 1 2 5 6 8 10 12 13 13 13 12 12 11
11 9 7 7 8 9 10 10 10 11 11 11 10 10 9 8 8 8 9 8 8 7 7 6 5 5 4 4 4 3 1 2 4 5 7 11 13 13 14 13 13 12 11
12 11 9 8 8 7 6 8 7 7 8 8 9 9 8 7 6 6 6 6 6 6 5 5 4 4 5 5 4 3 3 4 5 6 8 12 13 14 14 13 13 12 12
12 11 10 9 8 7 7 7 7 6 6 6 7 9 8 5 4 5 4 5 5 5 4 4 4 5 6 7 7 5 5 5 7 8 10 13 15 14 14 14 13 13 12
12 11 11 10 8 7 7 5 6 5 6 7 7 8 9 6 4 4 4 5 5 5 5 4 4 4 4 5 5 6 5 6 7 8 9 13 15 15 15 14 14 14 13
12 11 10 10 9 8 6 5 5 6 7 7 7 8 9 7 5 4 3 3 4 5 5 5 5 4 3 3 3 4 5 6 7 8 9 12 15 16 16 15 15 14 13
12 11 11 11 9 9 8 6 6 6 7 6 6 8 8 7 6 5 3 3 4 5 5 4 3 2 2 2 2 3 3 5 6 7 9 10 11 14 16 15 15 14 14
12 11 12 12 10 9 7 5 5 6 6 6 7 7 8 8 7 5 3 3 4 4 3 2 2 1 2 2 2 3 2 3 5 6 7 8 9 10 12 15 15 15 15
13 12 11 10 10 8 7 5 5 5 5 6 7 7 8 8 8 5 3 3 4 2 1 2 1 2 1 2 3 3 2 2 3 4 5 7 9 10 11 12 14 16 15
12 12 11 9 9 8 6 4 3 3 3 4 5 7 8 8 8 6 4 3 3 2 1 1 2 1 2 2 2 2 2 3 2 3 4 5 7 9 10 10 10 12 15
12 11 11 10 9 7 5 4 4 3 3 3 4 8 9 9 9 6 4 3 3 3 3 3 2 1 1 1 1 2 3 3 2 3 3 3 4 7 7 9 9 9 10
14 12 11 10 10 9 7 5 4 4 4 4 4 5 9 9 9 7 5 4 4 3 3 3 2 1 1 1 2 1 2 4 3 3 2 3 3 3 4 7 8 9 10
15 15 14 12 10 9 8 4 3 2 1 2 3 3 5 8 9 7 6 5 4 4 4 4 4 4 3 2 2 3 2 2 3 3 3 2 2 2 3 4 6 9 10
17 15 13 12 11 10 9 7 7 6 5 5 4 4 4 6 7 8 6 6 5 4 5 4 4 3 3 2 2 2 3 4 2 2 3 3 2 2 3 3 4 6 9
16 15 13 12 11 11 10 9 8 7 5 4 3 4 5 4 6 7 6 6 5 4 5 4 4 4 3 4 3 2 1 1 2 2 3 4 3 2 3 4 3 4 7
13 13 12 12 12 11 11 10 10 9 7 5 5 6 5 4 4 5 6 6 5 5 5 4 4 4 4 4 3 3 3 2 3 3 4 4 3 3 2 2 3 3 6
Wind_Direction
149 143 131 122 117 114 112 111 110 110 109 110 111 112 113 114 115 116 115 113 111 109 107 103 100 98 98 101 105 107 109 110 110 111 112 112 112 112 113 111 110 111 113
145 142 134 125 120 117 115 115 114 113 112 112 113 114 114 115 116 115 114 113 112 110 108 105 104 101 101 102 105 108 111 113 113 112 111 111 113 115 116 115 115 117 116
132 133 131 128 123 120 119 118 117 117 116 116 115 116 116 116 117 116 116 115 114 112 110 108 107 106 105 105 106 110 112 114 114 112 109 106 113 117 118 117 118 120 119
131 132 132 131 127 124 122 121 120 120 120 119 118 119 118 118 119 119 119 118 116 115 114 111 109 109 108 108 108 111 113 116 117 117 113 112 117 122 123 123 124 124 123
128 132 135 132 129 127 125 124 123 123 122 121 121 121 121 121 121 121 122 121 120 118 117 115 113 112 112 112 111 110 113 120 118 118 120 122 127 132 131 130 130 130 130
128 134 136 133 131 131 130 128 127 126 125 124 124 124 124 124 124 125 125 125 124 123 121 119 119 118 116 113 111 109 106 107 105 118 124 134 139 141 139 138 137 136 137
133 134 138 136 135 135 135 134 133 131 130 129 129 129 129 128 130 131 131 132 131 129 128 127 128 126 122 118 112 103 86 92 120 137 140 146 150 150 148 146 145 145 142
138 138 141 141 139 137 138 138 139 138 136 136 136 135 135 135 136 137 138 138 136 135 136 137 137 135 134 131 117 83 46 115 136 140 151 158 159 156 155 154 153 152 151
135 137 140 144 144 143 142 141 142 141 141 142 142 142 142 143 143 143 144 146 146 147 149 150 153 156 158 163 170 356 52 115 139 145 157 164 165 163 163 161 160 160 161
131 133 136 138 144 146 147 147 147 146 146 147 149 151 151 151 152 154 157 160 161 163 165 168 177 191 201 224 257 291 78 134 155 163 167 174 171 169 170 169 168 168 169
136 137 136 135 140 145 150 152 152 152 153 155 157 160 159 158 162 166 172 174 177 180 182 186 194 208 230 258 273 286 282 168 166 169 175 180 178 174 173 173 174 176 176
150 152 150 148 151 154 156 153 157 156 159 162 167 168 169 173 179 181 187 190 194 198 199 203 210 220 237 258 273 279 228 180 174 181 186 186 185 183 180 179 180 182 183
159 159 162 159 160 158 151 153 158 159 165 172 180 184 182 183 192 192 193 200 205 210 213 217 223 224 234 249 257 251 220 196 187 188 194 193 191 190 189 188 186 188 190
162 167 168 166 163 163 156 157 161 164 168 178 187 187 180 180 188 184 190 202 206 209 208 217 220 224 234 245 245 237 220 204 196 192 199 200 196 196 196 196 196 198 200
165 170 172 169 166 163 155 165 167 176 179 184 185 185 181 176 178 179 194 198 207 210 209 214 226 233 240 249 246 232 219 207 200 199 203 203 202 202 202 204 205 206 208
170 170 170 167 169 164 163 166 168 177 178 180 187 188 184 179 177 176 190 197 207 210 212 214 221 225 233 244 256 230 210 211 208 205 206 207 208 210 211 212 213 212 213
170 167 168 168 168 166 166 173 169 174 174 178 189 192 185 179 177 173 181 204 217 214 209 214 226 225 238 246 257 243 217 219 213 212 209 210 213 217 217 216 216 215 215
165 165 171 172 168 169 170 171 167 173 175 182 186 190 191 187 181 172 179 205 215 209 196 191 211 229 271 272 265 263 237 225 222 218 207 207 212 216 219 220 220 221 220
167 167 171 168 169 172 175 174 174 175 181 188 188 189 192 192 189 181 188 205 202 190 196 215 188 187 238 267 269 267 260 241 223 220 207 207 212 216 219 225 227 226 225
168 167 169 169 172 173 171 168 170 178 189 192 192 193 194 197 194 184 189 198 186 179 208 212 207 211 220 240 272 294 282 263 228 215 219 216 216 219 219 221 224 230 230
169 169 172 172 178 174 172 175 179 195 199 201 202 199 198 198 190 182 190 190 186 191 205 201 192 212 246 184 38 340 326 317 267 245 225 216 223 226 221 219 218 224 228
176 178 177 179 181 182 186 182 181 182 198 201 204 200 201 199 194 191 185 194 195 191 200 200 180 173 242 157 141 75 346 337 323 280 262 234 231 217 218 217 210 211 215
183 187 186 186 186 187 182 170 176 169 199 208 212 210 209 199 196 195 191 189 192 190 201 207 192 184 210 237 173 156 161 245 299 315 294 261 230 210 216 208 207 212 213
189 189 187 185 187 189 182 180 182 190 201 212 208 212 215 202 196 197 195 191 195 198 204 211 197 192 186 222 235 202 191 179 188 302 316 302 278 231 223 218 214 215 215
187 187 188 185 187 188 188 189 192 201 206 210 203 204 211 211 200 197 196 189 194 200 207 211 202 198 192 201 206 207 209 206 191 194 270 303 314 279 241 225 211 207 209
183 184 184 184 189 189 191 193 195 198 199 200 204 203 207 214 218 209 203 194 194 197 206 210 207 203 207 207 205 195 188 195 209 195 230 261 278 282 275 251 228 213 212
Height
1523 1524 1525 1526 1527 1528 1530 1531 1533 1535 1536 1538 1540 1542 1543 1545 1547 1548 1549 1551 1552 1553 1554 1555 1555 1556 1556 1557 1557 1558 1558 1559 1559 1560 1560 1561 1561 1561 1562 1562 1562 1563 1564
1522 1523 1526 1527 1529 1530 1532 1533 1535 1537 1539 1541 1542 1544 1546 1547 1549 1550 1552 1553 1554 1555 1556 1556 1557 1558 1558 1558 1559 1559 1560 1560 1561 1561 1562 1562 1563 1563 1563 1564 1564 1565 1565
1523 1524 1526 1528 1530 1532 1534 1536 1538 1540 1541 1543 1545 1546 1548 1550 1551 1552 1554 1555 1556 1557 1557 1558 1559 1559 1560 1560 1560 1561 1561 1562 1562 1563 1564 1564 1564 1565 1565 1566 1566 1566 1567
1525 1526 1528 1530 1532 1534 1536 1538 1540 1542 1544 1545 1547 1549 1550 1552 1553 1554 1556 1557 1558 1559 1559 1560 1560 1561 1561 1561 1562 1562 1563 1563 1564 1564 1565 1566 1566 1566 1567 1567 1567 1568 1568
1527 1528 1530 1532 1534 1536 1538 1540 1542 1544 1545 1547 1549 1551 1552 1553 1555 1556 1557 1558 1559 1560 1561 1561 1562 1562 1563 1563 1564 1564 1564 1565 1565 1566 1566 1567 1567 1568 1568 1568 1569 1569 1570
1529 1531 1532 1534 1536 1538 1540 1542 1544 1545 1547 1549 1551 1552 1554 1555 1556 1558 1559 1559 1560 1561 1562 1562 1563 1563 1564 1565 1565 1566 1566 1566 1567 1567 1568 1568 1568 1569 1569 1570 1570 1571 1571
1531 1533 1535 1537 1538 1540 1541 1543 1545 1547 1549 1551 1552 1554 1555 1557 1558 1559 1560 1561 1561 1562 1563 1564 1564 1565 1565 1566 1566 1567 1567 1568 1568 1568 1569 1569 1570 1570 1570 1571 1571 1571 1572
1532 1535 1537 1539 1540 1541 1543 1545 1546 1548 1550 1552 1554 1556 1557 1558 1559 1560 1561 1562 1563 1563 1564 1565 1565 1566 1566 1567 1568 1568 1568 1569 1569 1569 1570 1570 1570 1571 1571 1571 1572 1572 1573
1535 1536 1538 1540 1542 1543 1545 1546 1548 1549 1551 1553 1555 1557 1558 1559 1560 1561 1562 1563 1564 1564 1565 1566 1566 1566 1567 1568 1568 1569 1569 1569 1570 1570 1570 1571 1571 1571 1572 1572 1573 1573 1574
1536 1538 1540 1542 1544 1545 1546 1548 1549 1551 1553 1555 1556 1558 1559 1560 1561 1562 1563 1564 1564 1565 1566 1566 1567 1567 1568 1569 1569 1570 1570 1570 1571 1571 1571 1571 1572 1572 1572 1572 1573 1573 1574
1538 1540 1541 1543 1545 1546 1548 1550 1551 1553 1554 1556 1558 1559 1560 1561 1562 1563 1564 1565 1565 1566 1566 1567 1567 1568 1569 1569 1570 1570 1570 1571 1571 1571 1572 1572 1572 1572 1572 1573 1573 1574 1574
1538 1540 1542 1544 1546 1547 1549 1551 1553 1554 1556 1557 1559 1560 1561 1562 1563 1564 1564 1565 1566 1566 1567 1567 1568 1569 1569 1570 1570 1571 1571 1571 1571 1572 1572 1572 1572 1572 1572 1573 1573 1573 1574
1539 1541 1543 1545 1547 1548 1550 1552 1554 1555 1557 1558 1560 1561 1562 1563 1564 1564 1565 1566 1566 1567 1567 1568 1569 1569 1570 1570 1571 1571 1571 1571 1571 1572 1572 1572 1572 1572 1572 1572 1573 1573 1573
1540 1542 1544 1546 1548 1549 1551 1553 1554 1556 1558 1559 1560 1561 1562 1563 1564 1565 1565 1566 1567 1567 1568 1569 1569 1569 1570 1570 1571 1571 1571 1571 1571 1571 1571 1571 1571 1572 1572 1572 1572 1572 1572
1540 1542 1544 1546 1548 1550 1552 1554 1555 1557 1558 1559 1560 1562 1563 1563 1564 1565 1565 1566 1567 1567 1568 1568 1569 1569 1570 1570 1570 1570 1570 1570 1571 1571 1571 1571 1571 1571 1571 1571 1571 1571 1571
1540 1542 1544 1546 1548 1550 1552 1554 1555 1557 1558 1559 1561 1562 1563 1563 1564 1565 1565 1566 1567 1567 1568 1568 1568 1569 1569 1569 1569 1569 1569 1569 1570 1570 1570 1570 1570 1570 1570 1570 1570 1570 1570
1540 1542 1544 1546 1549 1550 1552 1554 1555 1557 1558 1559 1561 1562 1563 1563 1564 1564 1565 1565 1566 1566 1567 1567 1568 1568 1568 1568 1568 1568 1568 1568 1569 1569 1568 1568 1568 1568 1569 1569 1569 1569 1569
1539 1541 1544 1546 1548 1550 1552 1554 1555 1556 1558 1559 1560 1561 1562 1563 1563 1564 1564 1565 1565 1566 1566 1566 1567 1567 1567 1567 1567 1567 1567 1567 1567 1567 1567 1567 1567 1567 1567 1567 1567 1567 1567
1538 1540 1543 1545 1547 1550 1551 1553 1555 1556 1557 1558 1559 1560 1561 1562 1562 1563 1563 1564 1564 1565 1565 1565 1566 1566 1566 1566 1566 1566 1566 1565 1565 1565 1565 1565 1565 1565 1565 1565 1565 1565 1565
1537 1539 1542 1544 1546 1548 1550 1552 1554 1555 1556 1557 1558 1559 1560 1561 1561 1562 1562 1563 1563 1563 1564 1564 1564 1565 1565 1565 1565 1565 1564 1564 1563 1563 1563 1563 1564 1564 1564 1564 1563 1563 1563
1535 1537 1540 1542 1544 1546 1548 1550 1551 1553 1554 1556 1557 1558 1558 1559 1560 1561 1561 1561 1562 1562 1562 1563 1563 1563 1563 1564 1564 1563 1563 1562 1562 1561 1562 1562 1562 1562 1562 1562 1561 1561 1561
1532 1534 1537 1540 1542 1544 1546 1548 1550 1552 1553 1554 1555 1556 1557 1557 1558 1559 1559 1560 1560 1561 1561 1561 1561 1561 1562 1562 1563 1562 1561 1562 1560 1560 1560 1560 1560 1560 1560 1560 1559 1559 1559
1528 1531 1534 1536 1539 1542 1544 1546 1548 1550 1551 1552 1553 1554 1555 1556 1556 1557 1558 1558 1558 1559 1559 1559 1560 1560 1560 1561 1561 1562 1561 1560 1559 1559 1559 1559 1559 1558 1558 1558 1557 1557 1556
1525 1528 1531 1533 1536 1539 1542 1543 1545 1546 1547 1548 1550 1551 1553 1554 1555 1555 1556 1556 1557 1557 1557 1557 1558 1558 1558 1559 1559 1559 1560 1559 1559 1558 1558 1557 1557 1557 1556 1556 1556 1555 1554
1521 1525 1528 1530 1533 1536 1539 1540 1542 1544 1545 1547 1548 1549 1551 1552 1552 1553 1554 1554 1554 1555 1555 1555 1556 1556 1556 1557 1557 1557 1557 1557 1557 1557 1556 1555 1555 1555 1554 1554 1553 1553 1552
1518 1522 1525 1527 1530 1533 1535 1538 1539 1541 1543 1544 1545 1546 1548 1549 1550 1550 1551 1552 1552 1552 1553 1553 1553 1553 1554 1554 1555 1555 1555 1555 1554 1554 1554 1553 1552 1552 1552 1551 1551 1550 1550